Other Surface Observations
Issued by NWS

Home | Current Version | Previous Version | Text Only | Print | Product List | Glossary On
Versions: 1 2 3 4 5 6 7 8 9 10 11 12 13 14 15 16 17 18 19 20 21 22 23 24 25 26 27 28 29 30 31 32 33 34 35 36 37 38 39 40 41 42 43 44 45 46 47 48 49 50
000
SXPA56 KWBC 170539
OSOHW
:SHEF ENCODED 6-MINUTE NOS MET DATA
:NATIONAL WATER LEVEL OBSERVATION NETWORK (NWLON)
:TA(AIR TEMP DEG F)  SLP(SEA LEVEL PRESSURE INCHES)
:UD(WIND DIRECTION WHOLE DEGREES) US (WIND SPEED MPH)
:TW(WATER TEMP DEG F) UG(WIND GUSTS MPH) WC(CONDUCTIVITY uMHOS/CM)
:-9999 (MISSING VALUES)
:PROVIDED BY DOC/NOAA/NOS/CO-OPS, (301) 713-2540
:corms@noaa.gov
.E NWWH1 20190217 Z DH0524/TAIRP/DIN06/   70/   69
.E NWWH1 20190217 Z DH0524/PLIRP/DIN06/30.04/30.04
.E NWWH1 20190217 Z DH0524/USIRP/DIN06/    6/    7
.E NWWH1 20190217 Z DH0524/UDIRP/DIN06/  339/  342
.E NWWH1 20190217 Z DH0524/UGIRP/DIN06/   11/   10
.E NWWH1 20190217 Z DH0500/TAIRG/DIN06/-9999/-9999/   70/   70/   70
.E NWWH1 20190217 Z DH0500/PLIRG/DIN06/-9999/-9999/30.04/30.04/30.04
.E NWWH1 20190217 Z DH0500/USIRG/DIN06/-9999/-9999/   12/   10/    6
.E NWWH1 20190217 Z DH0500/UDIRG/DIN06/-9999/-9999/  345/  347/  339
.E NWWH1 20190217 Z DH0500/UGIRG/DIN06/-9999/-9999/   17/   14/   11
.E NWWH1 20190217 Z DH0500/TWIRG/DIN06/   75/   75/   75/   75/   75
.E OOUH1 20190217 Z DH0512/TAIRG/DIN06/   72/   71/   71
.E OOUH1 20190217 Z DH0512/PLIRG/DIN06/29.98/29.98/29.98
.E OOUH1 20190217 Z DH0512/USIRG/DIN06/    6/    4/    5
.E OOUH1 20190217 Z DH0512/UDIRG/DIN06/  322/  326/  343
.E OOUH1 20190217 Z DH0512/UGIRG/DIN06/    6/    6/    8
.E OOUH1 20190217 Z DH0512/TWIRG/DIN06/   74/   74/   74
.E MOKH1 20190217 Z DH0512/TAIRG/DIN06/   71/   71/   71
.E MOKH1 20190217 Z DH0512/PLIRG/DIN06/30.00/30.00/30.00
.E MOKH1 20190217 Z DH0512/USIRG/DIN06/   19/   20/   16
.E MOKH1 20190217 Z DH0512/UDIRG/DIN06/  339/  339/  337
.E MOKH1 20190217 Z DH0512/UGIRG/DIN06/   23/   23/   19
.E KLIH1 20190217 Z DH0512/TAIRG/DIN06/   72/   71/   72
.E KLIH1 20190217 Z DH0512/PLIRG/DIN06/29.98/29.98/29.98
.E KLIH1 20190217 Z DH0512/USIRG/DIN06/   18/   17/   16
.E KLIH1 20190217 Z DH0512/UDIRG/DIN06/  322/  323/  326
.E KLIH1 20190217 Z DH0512/UGIRG/DIN06/   22/   21/   21
.A KWHH1 20190217 Z DH0512/TAIRP    74/UGIRP     3/PLIRP 29.97/UDIRP   177/USIRP     2/TWIRP    76/WCIRP -9999
.E KWHH1 20190217 Z DH0512/TAIRG/DIN06/   74/   74/   74
.E KWHH1 20190217 Z DH0512/PLIRG/DIN06/29.97/29.97/29.97
.E KWHH1 20190217 Z DH0512/USIRG/DIN06/    2/    1/    0
.E KWHH1 20190217 Z DH0512/UDIRG/DIN06/  177/  176/  193
.E KWHH1 20190217 Z DH0512/UGIRG/DIN06/    3/    3/    2
.E KWHH1 20190217 Z DH0512/TWIRG/DIN06/   76/   76/   76
.E ILOH1 20190217 Z DH0518/TAIRG/DIN06/   73/   73
.E ILOH1 20190217 Z DH0518/PLIRG/DIN06/29.94/29.94
.E ILOH1 20190217 Z DH0518/USIRG/DIN06/    5/    4
.E ILOH1 20190217 Z DH0518/UDIRG/DIN06/  308/  307
.E ILOH1 20190217 Z DH0518/UGIRG/DIN06/    6/    5
.E ILOH1 20190217 Z DH0518/TWIRG/DIN06/   75/   75
.E SNDP5 20190217 Z DH0512/TAIRG/DIN06/   67/   67/   67
.E SNDP5 20190217 Z DH0512/PLIRG/DIN06/30.32/30.32/30.32
.E SNDP5 20190217 Z DH0512/TWIRG/DIN06/   69/   69/   69
.E APRP7 20190217 Z DH0512/TAIRG/DIN06/   82/-9999/   82
.E APRP7 20190217 Z DH0512/PLIRG/DIN06/29.91/-9999/29.91
.E APRP7 20190217 Z DH0512/USIRG/DIN06/   19/-9999/   18
.E APRP7 20190217 Z DH0512/UDIRG/DIN06/   32/-9999/   40
.E APRP7 20190217 Z DH0512/UGIRG/DIN06/   22/-9999/   21
.E APRP7 20190217 Z DH0512/TWIRG/DIN06/   82/-9999/   82
.E PGBP7 20190217 Z DH0512/PLIRG/DIN06/29.92/-9999/29.92
.E PGBP7 20190217 Z DH0512/USIRG/DIN06/    7/-9999/    7
.E PGBP7 20190217 Z DH0512/UDIRG/DIN06/   52/-9999/   53
.E PGBP7 20190217 Z DH0512/UGIRG/DIN06/   16/-9999/   15
.E NSTP6 20190217 Z DH0518/TAIRG/DIN06/   86/   87
.E NSTP6 20190217 Z DH0518/PLIRG/DIN06/29.76/29.76
.E NSTP6 20190217 Z DH0518/USIRG/DIN06/    2/    2
.E NSTP6 20190217 Z DH0518/UDIRG/DIN06/  268/  240
.E NSTP6 20190217 Z DH0518/UGIRG/DIN06/    5/    5
.E NSTP6 20190217 Z DH0518/TWIRG/DIN06/   85/   85
.E KWJP8 20190217 Z DH0518/PLIRG/DIN06/29.70/29.70
.E KWJP8 20190217 Z DH0518/TWIRG/DIN06/   82/   82
.E WAKP8 20190217 Z DH0512/TAIRG/DIN06/-9999/   78/   78
.E WAKP8 20190217 Z DH0512/PLIRG/DIN06/-9999/30.00/30.00
.E WAKP8 20190217 Z DH0512/USIRG/DIN06/-9999/   19/   17
.E WAKP8 20190217 Z DH0512/UDIRG/DIN06/-9999/   77/   76
.E WAKP8 20190217 Z DH0512/UGIRG/DIN06/-9999/   25/   23
.E WAKP8 20190217 Z DH0512/TWIRG/DIN06/   79/   79/   79



USA.gov is the U.S. government's official web portal to all federal, state and local government web resources and services.